Temp
-13 -14 -13 -13 -13 -13 -13 -13 -13 -13 -13 -14 -14 -14 -14 -14 -14 -14 -14 -15 -15 -15 -15 -15 -15 -14 -14 -14 -14 -14 -14 -14 -14 -14 -14 -13 -13 -13 -13 -13 -13 -13
-13 -14 -14 -14 -14 -14 -13 -13 -13 -13 -13 -14 -14 -14 -14 -14 -14 -14 -14 -15 -15 -15 -15 -15 -15 -15 -15 -14 -14 -14 -14 -14 -14 -14 -14 -14 -14 -14 -14 -14 -14 -14
-13 -14 -14 -14 -14 -14 -14 -14 -13 -13 -14 -14 -14 -14 -14 -14 -14 -14 -14 -15 -15 -15 -15 -15 -15 -15 -15 -15 -14 -14 -14 -14 -14 -14 -14 -14 -14 -14 -14 -14 -14 -14
-13 -13 -13 -13 -14 -14 -14 -14 -14 -14 -14 -14 -15 -15 -15 -15 -14 -14 -15 -15 -15 -15 -15 -15 -15 -15 -15 -15 -15 -14 -14 -14 -14 -14 -14 -14 -14 -14 -14 -14 -14 -14
-13 -13 -14 -14 -14 -14 -14 -14 -14 -14 -15 -15 -15 -15 -15 -15 -15 -15 -15 -15 -15 -15 -15 -15 -15 -15 -15 -15 -15 -15 -15 -14 -14 -14 -14 -14 -14 -14 -14 -14 -14 -14
-13 -14 -14 -14 -14 -14 -14 -14 -14 -14 -15 -15 -15 -15 -15 -15 -15 -15 -15 -15 -15 -15 -15 -15 -15 -15 -15 -15 -15 -15 -15 -15 -15 -15 -15 -15 -14 -14 -14 -14 -14 -14
-13 -14 -14 -14 -14 -14 -14 -14 -14 -15 -15 -15 -15 -15 -15 -15 -15 -15 -15 -15 -15 -15 -15 -15 -15 -15 -15 -15 -15 -15 -15 -15 -15 -15 -15 -14 -14 -14 -14 -14 -14 -14
-13 -14 -14 -14 -14 -14 -15 -14 -15 -15 -15 -15 -16 -16 -15 -15 -15 -15 -15 -15 -15 -15 -15 -15 -15 -15 -15 -15 -15 -15 -15 -15 -15 -15 -15 -14 -14 -14 -14 -14 -14 -14
-14 -14 -14 -14 -15 -15 -15 -15 -15 -15 -15 -15 -15 -15 -15 -15 -15 -15 -15 -15 -15 -15 -15 -15 -15 -15 -15 -15 -15 -15 -15 -15 -15 -15 -15 -15 -15 -14 -14 -14 -14 -14
-14 -14 -14 -15 -15 -15 -15 -15 -15 -15 -15 -15 -15 -15 -15 -15 -15 -15 -15 -15 -15 -15 -15 -15 -15 -15 -15 -15 -15 -15 -15 -15 -15 -15 -15 -15 -15 -14 -14 -14 -14 -14
-14 -14 -15 -15 -15 -15 -15 -15 -15 -15 -15 -15 -15 -15 -15 -15 -15 -15 -15 -15 -15 -15 -15 -15 -15 -15 -15 -15 -15 -15 -15 -15 -15 -15 -15 -15 -15 -15 -15 -15 -15 -15
-15 -15 -15 -15 -15 -15 -15 -15 -15 -15 -15 -15 -15 -15 -15 -15 -15 -15 -15 -15 -15 -15 -15 -15 -15 -15 -15 -15 -15 -15 -15 -15 -15 -15 -15 -15 -15 -15 -15 -15 -15 -15
-15 -15 -15 -15 -15 -15 -15 -15 -15 -15 -15 -15 -15 -15 -15 -15 -15 -15 -15 -15 -15 -15 -15 -15 -15 -15 -15 -15 -15 -15 -15 -15 -15 -15 -15 -15 -15 -15 -15 -15 -15 -15
-15 -15 -15 -15 -15 -15 -15 -15 -15 -16 -15 -15 -15 -16 -16 -16 -16 -15 -15 -15 -15 -15 -15 -15 -15 -15 -15 -15 -15 -15 -15 -15 -15 -15 -15 -15 -15 -15 -15 -15 -15 -15
-15 -15 -15 -15 -15 -15 -15 -16 -16 -16 -16 -16 -16 -16 -16 -16 -16 -16 -15 -15 -15 -16 -15 -15 -15 -15 -15 -15 -15 -15 -15 -15 -15 -15 -15 -15 -15 -15 -15 -15 -15 -15
-15 -15 -15 -15 -15 -15 -15 -16 -16 -16 -16 -16 -16 -16 -16 -16 -16 -16 -16 -15 -16 -16 -16 -15 -15 -15 -15 -15 -15 -15 -15 -16 -16 -16 -16 -16 -16 -15 -15 -15 -15 -15
-15 -15 -15 -15 -15 -16 -16 -16 -16 -16 -16 -16 -16 -16 -16 -16 -16 -16 -16 -16 -16 -16 -16 -16 -16 -16 -16 -16 -16 -16 -16 -16 -16 -16 -16 -16 -16 -16 -16 -16 -16 -16
-15 -15 -15 -15 -16 -16 -16 -16 -16 -16 -16 -15 -15 -16 -16 -15 -16 -16 -16 -16 -16 -16 -16 -16 -16 -16 -16 -16 -16 -16 -16 -16 -16 -16 -16 -16 -16 -16 -16 -16 -16 -16
-15 -15 -15 -15 -16 -16 -15 -15 -16 -16 -15 -15 -15 -15 -15 -15 -15 -16 -16 -16 -16 -16 -16 -16 -16 -16 -16 -16 -16 -16 -16 -16 -16 -16 -16 -16 -16 -16 -16 -16 -16 -16
-15 -15 -15 -16 -16 -16 -15 -16 -16 -16 -15 -15 -15 -15 -15 -15 -15 -15 -16 -15 -16 -16 -16 -16 -16 -16 -16 -16 -16 -16 -16 -16 -16 -16 -16 -16 -16 -16 -16 -16 -16 -16
-15 -15 -16 -16 -16 -16 -16 -16 -16 -16 -16 -15 -16 -16 -15 -15 -16 -16 -16 -16 -16 -16 -16 -16 -16 -16 -16 -16 -16 -16 -16 -16 -16 -16 -16 -16 -16 -16 -16 -16 -16 -16
-16 -16 -16 -16 -16 -16 -16 -16 -16 -16 -16 -16 -16 -16 -16 -16 -16 -16 -16 -16 -16 -16 -16 -16 -16 -16 -16 -16 -16 -16 -16 -16 -16 -16 -16 -16 -16 -16 -16 -16 -16 -16
-16 -16 -16 -16 -16 -16 -16 -16 -16 -16 -16 -16 -16 -16 -16 -16 -16 -16 -16 -16 -16 -16 -16 -16 -16 -16 -16 -16 -16 -16 -16 -16 -16 -16 -16 -16 -16 -16 -16 -16 -16 -16
-16 -16 -16 -16 -16 -16 -16 -16 -16 -16 -16 -16 -16 -16 -16 -16 -16 -16 -16 -16 -16 -16 -16 -16 -16 -16 -16 -16 -16 -16 -16 -16 -16 -16 -16 -16 -16 -16 -16 -16 -16 -16
-16 -16 -16 -16 -16 -16 -16 -16 -16 -16 -16 -16 -16 -17 -17 -17 -17 -17 -17 -17 -17 -16 -16 -17 -16 -16 -16 -16 -16 -17 -17 -17 -16 -17 -17 -17 -17 -17 -17 -16 -16 -17
-16 -16 -16 -16 -16 -16 -17 -17 -16 -16 -16 -16 -17 -17 -17 -17 -17 -17 -17 -17 -17 -17 -17 -17 -17 -17 -17 -17 -17 -17 -17 -17 -17 -16 -17 -17 -17 -17 -17 -17 -17 -17
Height
5775 5775 5775 5775 5775 5776 5778 5780 5780 5781 5781 5782 5782 5782 5783 5783 5784 5784 5785 5786 5787 5788 5789 5790 5791 5792 5793 5794 5795 5796 5797 5797 5797 5798 5799 5799 5799 5800 5800 5800 5800 5801
5774 5773 5773 5773 5774 5776 5777 5778 5779 5779 5779 5780 5780 5780 5781 5781 5782 5783 5784 5784 5785 5786 5787 5789 5790 5791 5792 5792 5793 5794 5795 5795 5796 5796 5797 5798 5798 5798 5798 5799 5798 5798
5772 5771 5770 5770 5772 5774 5775 5776 5776 5777 5777 5777 5778 5778 5779 5780 5780 5781 5782 5783 5783 5784 5785 5787 5788 5789 5790 5791 5792 5793 5793 5794 5794 5795 5795 5796 5796 5796 5797 5797 5797 5797
5768 5768 5768 5768 5770 5771 5772 5773 5774 5774 5775 5775 5776 5776 5777 5778 5778 5779 5780 5781 5781 5782 5783 5785 5786 5787 5788 5789 5790 5791 5792 5792 5792 5793 5794 5794 5795 5795 5795 5795 5795 5795
5763 5764 5765 5767 5767 5768 5769 5769 5770 5771 5772 5772 5773 5774 5775 5776 5776 5777 5778 5778 5779 5780 5781 5783 5784 5785 5786 5788 5789 5789 5790 5790 5791 5791 5792 5792 5793 5793 5793 5794 5794 5794
5760 5761 5763 5764 5764 5765 5765 5766 5767 5768 5768 5770 5771 5772 5773 5774 5774 5775 5776 5777 5777 5778 5779 5781 5782 5783 5784 5786 5787 5787 5788 5788 5789 5789 5790 5790 5791 5791 5791 5791 5792 5792
5758 5758 5759 5760 5761 5761 5762 5763 5764 5765 5765 5767 5768 5770 5771 5772 5773 5774 5774 5775 5776 5777 5778 5779 5780 5781 5782 5784 5784 5785 5786 5786 5787 5787 5788 5788 5788 5788 5789 5789 5789 5789
5755 5755 5756 5757 5758 5758 5759 5760 5761 5762 5763 5764 5766 5767 5768 5769 5770 5771 5772 5773 5774 5775 5776 5777 5778 5779 5780 5781 5782 5783 5784 5784 5785 5785 5785 5786 5786 5786 5786 5786 5786 5787
5753 5753 5754 5755 5756 5756 5757 5758 5759 5760 5761 5762 5764 5765 5766 5767 5768 5769 5770 5771 5772 5774 5775 5776 5776 5777 5778 5779 5779 5780 5781 5782 5782 5783 5783 5783 5783 5783 5783 5784 5784 5784
5751 5751 5752 5754 5755 5756 5757 5758 5758 5759 5760 5761 5762 5763 5764 5765 5766 5767 5768 5769 5771 5772 5773 5774 5774 5775 5776 5776 5777 5778 5778 5779 5780 5780 5780 5781 5781 5781 5781 5781 5781 5781
5750 5750 5751 5753 5755 5756 5757 5757 5758 5759 5759 5760 5761 5762 5763 5763 5764 5765 5766 5768 5768 5770 5771 5772 5772 5773 5774 5774 5775 5776 5776 5777 5777 5778 5778 5778 5778 5778 5779 5779 5779 5779
5749 5750 5752 5753 5754 5754 5755 5756 5757 5757 5758 5759 5761 5761 5762 5762 5762 5763 5764 5765 5766 5767 5769 5770 5771 5771 5772 5772 5773 5774 5774 5775 5775 5775 5776 5776 5776 5776 5776 5777 5777 5777
5747 5749 5750 5751 5751 5751 5752 5753 5754 5755 5756 5757 5759 5760 5760 5760 5761 5761 5762 5763 5764 5765 5767 5768 5769 5769 5770 5770 5771 5771 5772 5772 5773 5773 5773 5773 5773 5774 5774 5774 5774 5775
5744 5745 5747 5748 5749 5749 5750 5751 5752 5753 5754 5755 5756 5758 5758 5759 5759 5759 5760 5761 5762 5763 5764 5765 5766 5767 5768 5768 5768 5769 5769 5770 5771 5771 5771 5771 5771 5771 5771 5771 5772 5772
5740 5742 5744 5745 5746 5747 5748 5749 5750 5750 5751 5752 5754 5755 5756 5756 5757 5757 5758 5758 5759 5760 5761 5763 5764 5765 5765 5766 5766 5767 5767 5768 5769 5769 5769 5769 5769 5769 5769 5769 5769 5769
5737 5738 5740 5742 5743 5744 5746 5747 5747 5748 5749 5750 5751 5752 5753 5753 5754 5754 5755 5756 5757 5758 5759 5760 5761 5762 5763 5763 5764 5765 5765 5766 5766 5766 5766 5766 5766 5766 5766 5766 5766 5767
5734 5736 5738 5739 5740 5742 5743 5744 5745 5745 5746 5747 5748 5749 5750 5751 5751 5752 5752 5753 5754 5755 5756 5757 5758 5759 5760 5761 5762 5763 5763 5764 5763 5763 5763 5762 5762 5762 5763 5763 5764 5764
5731 5733 5735 5737 5737 5739 5740 5741 5742 5743 5744 5744 5745 5746 5747 5747 5748 5749 5750 5751 5752 5752 5753 5754 5755 5756 5756 5758 5759 5760 5761 5761 5760 5760 5760 5759 5759 5759 5760 5760 5760 5761
5728 5731 5733 5734 5734 5736 5737 5738 5739 5739 5740 5741 5741 5743 5743 5744 5745 5746 5747 5748 5749 5750 5750 5751 5752 5752 5753 5754 5755 5756 5757 5757 5757 5757 5757 5757 5757 5757 5757 5757 5757 5757
5726 5728 5730 5731 5732 5733 5734 5735 5736 5736 5737 5737 5738 5739 5740 5741 5742 5743 5744 5745 5745 5746 5747 5748 5748 5749 5750 5750 5751 5752 5753 5754 5754 5754 5754 5754 5755 5755 5755 5755 5755 5755
5724 5726 5727 5728 5729 5731 5732 5733 5733 5733 5734 5735 5735 5736 5737 5738 5739 5740 5741 5741 5742 5742 5743 5744 5745 5746 5746 5747 5747 5748 5749 5750 5751 5751 5752 5752 5753 5754 5754 5753 5753 5752
5722 5723 5724 5725 5727 5728 5729 5731 5731 5731 5732 5733 5733 5734 5735 5735 5736 5737 5738 5738 5739 5739 5740 5741 5741 5742 5743 5743 5744 5745 5746 5747 5748 5749 5749 5750 5751 5752 5752 5751 5750 5750
5720 5721 5722 5723 5724 5726 5727 5729 5729 5729 5729 5730 5731 5731 5732 5733 5734 5735 5735 5736 5736 5737 5737 5738 5738 5739 5739 5740 5741 5741 5742 5743 5744 5745 5746 5747 5748 5748 5748 5748 5748 5748
5718 5719 5721 5721 5722 5723 5725 5726 5727 5727 5727 5727 5728 5729 5729 5730 5731 5732 5732 5733 5733 5734 5734 5735 5735 5736 5736 5737 5737 5738 5739 5740 5740 5741 5742 5743 5743 5744 5744 5744 5744 5743
5716 5717 5718 5719 5720 5721 5722 5723 5724 5725 5724 5725 5725 5726 5726 5727 5728 5729 5729 5730 5730 5732 5732 5732 5733 5733 5733 5733 5734 5734 5735 5736 5736 5737 5738 5738 5738 5739 5739 5739 5739 5737
5714 5715 5716 5716 5717 5718 5719 5720 5721 5721 5722 5722 5723 5723 5723 5724 5724 5725 5726 5727 5727 5729 5729 5729 5730 5730 5730 5730 5731 5731 5732 5732 5732 5732 5733 5733 5733 5733 5734 5734 5733 5731
Wind_Speed
23 21 20 20 19 19 19 19 20 19 19 18 17 16 16 17 18 18 19 19 18 17 17 16 16 16 16 16 15 14 14 14 15 15 16 16 17 17 17 18 18 16
23 22 20 18 17 18 19 20 20 20 18 17 16 16 17 17 18 20 21 20 18 17 16 16 16 16 16 16 15 15 15 15 16 16 17 17 17 17 18 18 18 18
22 21 21 19 18 18 19 19 19 19 18 16 16 17 18 19 20 21 21 20 18 16 16 16 16 16 16 16 16 16 16 17 18 18 18 18 18 17 18 18 18 18
23 25 26 24 21 19 19 19 19 19 19 18 18 19 19 20 20 20 20 19 18 17 16 16 17 17 17 17 17 18 18 19 19 19 19 18 18 18 17 17 17 17
26 28 28 25 22 21 20 21 21 21 20 19 19 19 19 20 20 19 18 17 17 16 16 17 18 19 19 19 19 19 19 20 20 19 19 18 17 16 16 16 16 17
27 27 27 26 24 22 22 22 23 23 22 21 21 20 19 19 18 16 15 16 17 16 16 18 19 20 20 20 20 19 19 19 19 19 18 17 17 17 17 17 17 17
27 26 27 27 25 24 23 23 22 22 22 21 19 18 19 19 18 17 17 17 18 17 18 19 20 21 21 20 21 20 20 20 19 19 19 19 20 20 20 19 19 18
28 28 27 27 27 25 24 23 22 22 22 21 19 18 19 20 19 19 19 20 20 20 20 20 20 21 21 21 22 21 21 21 20 19 20 20 20 20 20 20 20 20
28 28 27 27 27 27 25 23 22 22 22 21 20 21 21 21 20 20 21 21 22 22 21 21 20 21 21 21 21 20 20 20 20 19 19 20 20 20 20 21 21 22
27 27 27 26 26 27 26 24 23 23 22 21 21 21 21 21 21 21 21 21 22 22 21 21 21 21 21 20 19 19 19 19 19 19 19 19 20 21 22 22 23 23
27 26 25 23 24 25 25 25 24 24 23 21 21 20 20 21 21 21 21 21 22 22 21 21 21 21 21 20 19 19 19 19 19 18 19 20 21 22 23 24 25 26
25 24 22 21 22 24 25 25 25 24 24 23 22 21 22 22 22 23 22 22 23 23 22 21 21 21 21 20 19 19 19 18 18 18 20 21 22 23 23 24 26 27
25 25 23 23 23 24 25 26 26 25 25 25 23 23 24 25 25 25 25 24 24 24 23 22 22 22 21 20 19 19 19 19 18 19 21 22 23 23 23 23 24 25
27 27 26 25 25 25 25 25 26 26 27 26 25 25 25 26 26 26 26 26 26 25 24 23 22 22 21 20 20 20 20 20 19 21 22 23 23 24 23 23 23 23
29 28 28 28 27 26 25 25 25 26 26 26 26 26 27 27 27 26 27 27 27 27 26 25 24 22 22 22 22 21 21 20 20 22 23 23 24 24 23 22 22 23
31 29 28 28 27 26 25 25 26 26 26 25 24 25 26 27 27 27 27 27 28 28 27 27 26 25 24 23 23 23 22 22 22 22 23 24 25 24 24 23 24 25
31 29 27 26 25 25 24 24 26 27 27 27 26 26 26 26 27 27 27 26 26 27 27 27 27 27 25 24 24 24 24 24 24 24 25 25 26 26 25 25 26 27
30 29 27 24 23 23 22 22 24 26 27 28 28 28 27 27 27 27 27 26 25 26 27 28 28 28 28 26 25 25 24 25 26 26 26 26 27 27 27 27 27 28
28 27 25 24 23 21 20 20 22 24 26 29 29 29 29 29 27 27 27 27 26 26 27 27 29 30 30 29 28 27 24 24 26 26 26 27 27 28 28 28 28 28
27 25 24 23 21 19 19 21 23 23 22 23 25 27 29 31 30 29 29 28 28 29 28 29 30 31 32 32 32 29 25 25 26 26 26 27 27 28 28 29 29 29
24 22 22 22 20 19 22 23 24 23 19 18 20 23 25 27 28 27 25 25 26 27 27 28 29 30 32 33 32 28 25 25 25 26 26 27 27 26 26 29 31 31
21 20 20 21 21 22 23 23 22 22 21 19 20 21 21 21 21 20 20 20 21 22 23 24 24 25 27 27 26 24 24 25 25 26 27 28 28 27 26 29 32 32
21 21 21 22 21 21 21 20 21 22 22 21 21 21 20 19 19 19 19 20 21 22 23 23 22 22 23 24 24 24 25 26 26 28 28 29 29 30 29 31 33 33
23 23 22 21 20 20 19 19 20 20 20 20 20 21 21 20 19 19 18 18 19 20 22 22 22 23 24 24 25 25 25 26 27 27 28 29 30 31 32 33 33 33
23 23 22 21 21 20 20 20 21 22 22 22 21 22 22 21 21 20 18 18 19 20 21 22 23 24 26 26 26 26 26 28 28 28 28 30 31 32 32 32 32 33
23 23 23 22 21 21 20 20 22 24 26 25 24 24 25 24 24 23 22 23 23 23 23 25 26 27 28 28 28 29 30 31 32 31 32 32 33 33 34 33 33 34
Wind_Direction
247 245 245 247 244 242 244 242 240 240 239 238 238 241 247 251 254 255 257 257 256 255 252 249 246 244 244 246 248 250 252 254 256 258 259 260 261 262 262 262 261 261
246 243 242 245 243 243 245 245 243 242 240 237 238 242 247 251 253 255 256 255 251 247 243 242 242 243 244 245 247 249 252 255 257 258 259 259 260 261 262 262 262 262
240 239 244 248 246 244 246 247 245 241 235 233 240 245 249 253 256 257 256 252 246 240 239 240 241 242 243 245 249 254 257 258 258 259 259 258 258 258 258 259 260 261
249 248 253 253 247 244 244 244 242 234 229 232 241 244 247 252 255 258 258 250 242 237 237 241 243 245 245 248 253 258 260 261 260 259 259 259 257 256 255 255 255 256
257 255 253 249 245 243 241 239 235 227 226 234 240 241 246 252 255 257 255 246 238 234 236 241 244 246 248 251 254 257 259 260 259 259 258 257 256 256 255 255 254 255
251 250 248 245 243 241 237 234 230 224 224 230 235 238 244 250 253 252 246 241 239 238 237 240 243 246 248 251 253 255 257 258 258 257 256 256 258 260 261 260 258 257
243 242 241 240 237 234 232 229 226 224 224 226 232 238 242 246 249 249 245 245 246 244 243 243 245 247 248 250 252 253 255 256 256 256 257 259 261 263 263 262 261 259
237 236 237 236 232 228 227 225 223 223 223 222 228 237 241 244 248 250 250 250 249 248 247 246 247 249 250 252 254 254 253 251 252 255 258 261 261 262 261 260 260 258
234 235 236 235 232 227 225 223 222 224 224 223 227 234 238 243 247 250 252 253 252 251 248 247 247 250 252 255 257 256 252 249 250 254 258 261 262 262 262 261 260 259
233 236 236 235 233 231 230 228 227 228 228 227 229 232 236 241 246 250 253 255 255 251 247 246 247 250 254 256 257 256 253 250 250 253 257 261 263 264 265 264 263 263
232 236 235 233 234 235 236 235 233 233 233 231 231 234 239 243 248 251 254 256 255 250 247 247 249 253 256 257 258 257 255 252 251 253 257 261 264 266 267 267 266 266
235 239 236 232 233 235 237 237 235 234 235 235 235 238 242 246 248 251 252 253 253 252 250 250 252 254 255 256 255 254 250 248 251 256 261 264 265 266 267 267 267 267
239 243 239 233 231 233 234 235 234 235 237 239 240 242 245 247 249 250 251 251 252 253 252 251 252 254 253 252 250 247 244 245 252 258 262 266 268 268 268 267 267 267
240 239 236 234 234 237 238 238 237 238 239 241 243 244 246 248 249 250 252 252 251 252 252 252 253 254 253 249 248 246 245 248 256 261 265 267 268 268 267 266 267 268
243 237 234 236 239 240 241 241 240 240 241 243 244 245 246 247 248 250 251 250 249 250 251 252 253 253 251 248 247 246 246 252 260 265 268 268 267 265 263 262 264 267
243 237 236 239 240 241 241 241 240 240 242 243 245 247 247 247 248 249 250 249 247 248 250 252 253 252 250 250 249 248 249 257 265 269 271 269 266 263 260 260 264 268
240 237 237 239 240 241 242 242 243 243 244 246 248 249 249 248 247 247 247 247 249 249 250 252 253 252 253 253 254 252 254 261 268 271 271 269 266 263 261 263 268 271
238 240 240 241 242 242 243 245 247 247 246 248 250 252 253 253 251 249 246 246 249 251 251 252 253 254 255 256 257 258 259 263 267 268 269 267 264 262 261 263 267 270
237 240 240 242 243 242 245 251 254 254 252 249 250 253 255 256 256 254 250 248 250 252 252 251 252 254 256 258 259 260 260 261 262 263 264 262 259 259 260 262 265 269
236 238 237 239 238 239 246 252 257 262 260 253 253 256 257 257 256 254 253 255 257 256 253 249 248 249 252 255 257 257 257 256 257 258 259 258 258 261 263 265 267 268
234 236 236 238 239 240 245 251 256 261 260 256 257 260 261 258 254 250 251 255 256 255 252 250 249 249 249 251 252 253 253 254 255 257 258 258 258 261 265 267 267 267
235 238 243 248 248 247 247 251 256 259 259 258 260 262 262 259 253 251 253 254 254 253 252 254 256 258 257 256 256 256 257 259 261 262 263 263 262 260 261 265 267 268
239 242 246 250 250 248 247 248 252 256 259 259 259 259 260 260 261 262 261 257 254 253 254 256 259 261 263 263 263 264 265 267 269 270 270 269 264 261 262 265 267 267
243 242 242 244 245 245 245 243 245 251 256 259 261 262 262 263 266 267 264 257 251 251 253 255 257 259 260 262 264 266 268 270 271 272 273 271 267 266 268 269 269 268
244 242 241 240 241 242 240 239 238 241 246 252 258 262 264 265 264 262 260 256 253 252 252 253 253 254 256 258 260 262 264 265 266 267 268 269 268 268 268 269 269 269
243 243 243 243 243 242 241 240 238 239 243 246 247 251 255 258 257 255 254 254 255 256 256 256 256 256 258 260 261 263 265 266 266 266 265 264 265 266 266 265 264 265